Zurück zum Katalog

STARLINK-35504

AktivKommunikationVLEO
NORAD 66325·PAYLOAD·🇺🇸 United States

Gestartet Nov 6, 2025 von Cape Canaveral Space Force Station

Loading…

Nächste Überflüge (nächste 24 Stunden)

TLE

AktuellSource: CelesTrak SupGP

Epoche: Sep 14, 2026, 21:33 UTC

1 66325C 25253G   26257.89840278  .00024918  00000+0  90252-3 0  2578
2 66325  42.9995 224.3334 0000996 257.5075 227.9566 15.27566856    17

Verfolge STARLINK-35504 in Echtzeit mit AllMySat

Download on the App Store